[[{"header":{"parameterUnit":"m.s-1","parameterCategory":1,"la1":30.2991,"la2":30.254,"lo1":-89.0895,"lo2":-89.0444,"dy":0.0017,"dx":0.0017,"nx":28,"ny":28,"refTime":"2025-07-25T09:00:00:Z","depth":0,"parameterNumber":2,"parameterNumberName":"U-component_of_WINDS"},"data":[0,0,0,0,0,0,0,0,0,0,0,0,0,0,0,0,0,0,0,0,0,0,0,0,0,0,0,0,0,0,0,0,0,0,0,0,0,0,0,0,0,0,0,0,0,0,0,0,0,0,0,0,0,0,0,0,0,0,0.1918,0.1917,0,0.1894,0.1894,0.1894,0.1872,0.1871,0.1871,0.1871,0.1848,0.1848,0.1847,0,0,0,0,0,0,0,0,0,0,0,0,0,0.1943,0.1943,0.1918,0.1917,0.1917,0.1894,0.1894,0.1894,0.1872,0.1871,0.1871,0.1871,0.1848,0.1848,0.1847,0,0,0,0,0,0,0,0,0,0,0,0,0,0.1927,0.1943,0.1918,0.1903,0.1902,0.1895,0.1894,0.1894,0.1872,0.1871,0.1871,0.1871,0.1848,0.1848,0.1847,0.1852,0,0,0.1845,0.1845,0,0,0,0,0,0,0,0,0.1928,0.1926,0.1906,0.1904,0.1903,0.1886,0.1895,0.188,0.1872,0.1883,0.1871,0.187,0.1861,0.1859,0.1856,0.1851,0.185,0.1845,0.1845,0.1845,0.1845,0,0,0,0,0,0,0,0.1929,0.1927,0.1909,0.1906,0.1904,0.1898,0.1895,0.1892,0.1875,0.1882,0.1881,0.1878,0.186,0.1856,0.1855,0.185,0.1845,0.1845,0.1845,0.1844,0.1847,0.1848,0,0,0,0,0,0,0.1933,0.1928,0.1909,0.1908,0.1915,0.1898,0.1895,0.1891,0.1875,0.1872,0.1879,0.1877,0.1857,0.1856,0.1854,0.1858,0.1845,0.1844,0.1844,0.1847,0.1847,0.1848,0,0,0,0,0,0,0.1933,0.1931,0.191,0.1918,0.1914,0.1898,0.1894,0.1891,0.1888,0.1872,0.1869,0.1878,0.1857,0.1855,0.1853,0.1857,0.1844,0.1844,0.1846,0.1847,0.1848,0.1867,0,0,0,0,0,0,0.1934,0.1931,0.1933,0.1918,0.1914,0.1909,0.1895,0.1891,0.1887,0.1885,0.1871,0.1868,0.1857,0.1854,0.1852,0.1856,0.1843,0.1846,0.1847,0.1847,0.1866,0.1868,0.187,0,0,0,0,0,0.1935,0.194,0.1933,0.1931,0.1916,0.1909,0.1907,0.1894,0.1887,0.1889,0.1878,0.1868,0.1857,0.1853,0.1852,0.1856,0.1846,0.1847,0.1847,0.1865,0.1868,0.187,0,0,0,0,0,0,0.1957,0.1938,0.193,0.1931,0.1922,0.1906,0.1907,0.1898,0.1891,0.1889,0.1873,0.187,0.187,0.1863,0.1859,0.1859,0.185,0.185,0.1864,0.1866,0.1869,0.187,0.1843,0,0,0,0,0,0.1962,0.1958,0.1941,0.1943,0.1939,0.1924,0.1921,0.1911,0.1901,0.1898,0.1887,0.1878,0.1873,0.1869,0.1863,0.1865,0.1861,0.1867,0.1869,0.1871,0.1871,0.1871,0.1873,0.1851,0.1851,0.1851,0,0,0.1972,0.1961,0.1959,0.1947,0.1939,0.1935,0.1921,0.1918,0.1914,0.1897,0.1894,0.1886,0.1875,0.1874,0.1874,0.1869,0.1876,0.1872,0.1873,0.1873,0.1872,0.1874,0.1876,0.1851,0.1851,0.1851,0,0,0.1988,0.198,0.1979,0.1972,0.196,0.1949,0.1949,0.1935,0.1928,0.1925,0.1912,0.1908,0.1899,0.1891,0.1886,0.1898,0.1888,0.1897,0.1908,0.1907,0.1909,0.191,0.1914,0.1915,0.1897,0.1897,0.1897,0,0.2002,0.1995,0.1981,0.1978,0.1973,0.1956,0.1956,0.1949,0.1936,0.1933,0.1927,0.1914,0.1906,0.1903,0.1906,0.1903,0.1902,0.1898,0.191,0.1911,0.1912,0.1915,0.1917,0.1898,0.1898,0.1898,0.1898,0,0.2012,0.2008,0.201,0.1996,0.1991,0.199,0.1975,0.1972,0.1963,0.1953,0.1949,0.1939,0.193,0.1928,0.192,0.1924,0.1921,0.1913,0.1903,0.1916,0.1918,0.1919,0.19,0.19,0.1899,0.1899,0,0,0.2041,0.202,0.2021,0.2014,0.1999,0.1996,0.1993,0.1984,0.1981,0.1973,0.197,0.1962,0.1954,0.1948,0.1939,0.1938,0.1948,0.193,0.193,0.1933,0.195,0.1956,0.1958,0.1941,0.1941,0.1942,0.1951,0,0.2054,0.2048,0.2035,0.2033,0.2029,0.2013,0.2011,0.2001,0.1992,0.1987,0.1977,0.1971,0.1962,0.1958,0.1957,0.1947,0.1951,0.1946,0.1938,0.1938,0.194,0.1959,0.1965,0.1974,0.1952,0.1952,0.1952,0,0.2068,0.206,0.2058,0.2042,0.204,0.2038,0.2028,0.2023,0.2012,0.2005,0.1999,0.1988,0.1984,0.1975,0.1969,0.1967,0.1962,0.1957,0.1957,0.1955,0.1945,0.1957,0.1977,0.1978,0.1954,0.1954,0.1954,0,0.2088,0.2077,0.2073,0.2069,0.2051,0.205,0.2042,0.2031,0.2026,0.2017,0.2014,0.2005,0.2,0.1994,0.1981,0.1976,0.1976,0.1966,0.197,0.197,0.197,0.197,0.1989,0.1969,0.1969,0.1969,0.1969,0,0.2103,0.2102,0.2082,0.208,0.2078,0.2063,0.2062,0.2053,0.2043,0.2039,0.2025,0.2021,0.2005,0.1999,0.1989,0.1985,0.1983,0.1977,0.1975,0.1978,0.1979,0.1975,0.1973,0.1969,0.1969,0.1969,0.1969,0,0.2125,0.2112,0.2107,0.2091,0.2086,0.2086,0.2071,0.2069,0.2059,0.2054,0.2051,0.2036,0.2028,0.2015,0.2004,0.1997,0.1995,0.1991,0.1999,0.1997,0.2001,0.2,0.2017,0.2018,0.1998,0.1998,0.1999,0,0.2135,0.2134,0.2117,0.2113,0.2106,0.21,0.2095,0.208,0.2075,0.2062,0.206,0.2052,0.2044,0.2033,0.2021,0.2012,0.2007,0.2013,0.2005,0.2009,0.2006,0.2006,0.2005,0.2015,0.2015,0.2015,0.2016,0,0.2154,0.2147,0.214,0.213,0.2124,0.2116,0.2107,0.2105,0.2088,0.2083,0.2075,0.2069,0.2057,0.2048,0.2038,0.203,0.202,0.2018,0.2018,0.2022,0.2026,0.2023,0.2003,0.2018,0.2018,0.2017,0.2017,0.2017,0.217,0.2167,0.2155,0.2147,0.2139,0.2131,0.2127,0.2116,0.2109,0.2098,0.209,0.2082,0.2071,0.2055,0.2048,0.2042,0.2037,0.2038,0.2038,0.2038,0.2039,0.2028,0.204,0.204,0.204,0.204,0.204,0,0.2187,0.2178,0.2171,0.2159,0.2153,0.2143,0.2133,0.2128,0.2122,0.2111,0.2104,0.2094,0.2086,0.2073,0.2063,0.2061,0.2056,0.2059,0.2058,0.2056,0.2044,0.2045,0.2063,0.2063,0.2063,0.2063,0.2063,0.2063,0.2195,0.2191,0.2182,0.2173,0.2165,0.2157,0.2151,0.2144,0.2135,0.2125,0.2118,0.2109,0.2098,0.2087,0.2079,0.2075,0.2072,0.2076,0.2071,0.206,0.2057,0.2055,0.2056,0.2076,0.2076,0.2083,0.2083,0.2084]},{"header":{"parameterUnit":"m.s-1","parameterCategory":1,"la1":30.2991,"la2":30.254,"lo1":-89.0895,"lo2":-89.0444,"dy":0.0017,"dx":0.0017,"nx":28,"ny":28,"refTime":"2025-07-25T09:00:00:Z","depth":0,"parameterNumber":3,"parameterNumberName":"V-component_of_WINDS"},"data":[0,0,0,0,0,0,0,0,0,0,0,0,0,0,0,0,0,0,0,0,0,0,0,0,0,0,0,0,0,0,0,0,0,0,0,0,0,0,0,0,0,0,0,0,0,0,0,0,0,0,0,0,0,0,0,0,0,0,4.0896,4.0897,0,4.0918,4.0918,4.0918,4.0843,4.0841,4.0838,4.0836,4.0856,4.0858,4.0861,0,0,0,0,0,0,0,0,0,0,0,0,0,4.0788,4.079,4.0896,4.0897,4.0897,4.0918,4.0918,4.0918,4.0843,4.0841,4.0838,4.0835,4.0855,4.0858,4.0861,0,0,0,0,0,0,0,0,0,0,0,0,0,4.0825,4.0791,4.0896,4.0862,4.0859,4.0918,4.0918,4.0918,4.0844,4.0841,4.0837,4.0834,4.0854,4.0858,4.0862,4.0953,0,0,4.0873,4.0875,0,0,0,0,0,0,0,0,4.0823,4.0829,4.0867,4.0865,4.0862,4.0874,4.0887,4.093,4.0845,4.085,4.0836,4.0832,4.0864,4.0867,4.0879,4.0954,4.0955,4.0874,4.0876,4.0878,4.0879,0,0,0,0,0,0,0,4.082,4.0827,4.0905,4.0868,4.0864,4.0845,4.0846,4.0894,4.0876,4.0849,4.0844,4.0847,4.0862,4.0875,4.0878,4.0955,4.0874,4.0877,4.088,4.0881,4.1104,4.1107,0,0,0,0,0,0,4.0822,4.0826,4.0904,4.0905,4.0833,4.0849,4.0851,4.0874,4.0875,4.0872,4.085,4.0844,4.087,4.0874,4.0879,4.0984,4.0878,4.0881,4.0884,4.11,4.1104,4.1108,0,0,0,0,0,0,4.082,4.083,4.0903,4.0864,4.0872,4.0855,4.0881,4.0876,4.0888,4.0876,4.0872,4.0867,4.0867,4.0873,4.0935,4.0983,4.0883,4.0887,4.1096,4.1101,4.1106,4.1196,0,0,0,0,0,0,4.0818,4.083,4.0865,4.0865,4.0874,4.096,4.0884,4.0879,4.0895,4.0887,4.089,4.0887,4.0865,4.0929,4.0939,4.0987,4.089,4.1091,4.1098,4.1105,4.1188,4.1203,4.1216,0,0,0,0,0,4.0814,4.089,4.0867,4.0877,4.0918,4.0963,4.0968,4.0941,4.09,4.0934,4.0926,4.0887,4.0977,4.0936,4.0946,4.0996,4.1088,4.1096,4.1104,4.1182,4.12,4.1216,0,0,0,0,0,0,4.0895,4.0889,4.0864,4.0942,4.0954,4.095,4.0993,4.0962,4.0985,4.0976,4.0942,4.0943,4.101,4.1009,4.0964,4.1084,4.1025,4.1036,4.1081,4.1098,4.1112,4.111,4.0893,0,0,0,0,0,4.0922,4.096,4.0952,4.1022,4.1029,4.101,4.1029,4.1007,4.1017,4.1021,4.1018,4.1028,4.1058,4.1079,4.1106,4.1189,4.1187,4.1228,4.1242,4.1254,4.1262,4.1303,4.1321,4.1135,4.1135,4.1134,0,0,4.0978,4.0979,4.1005,4.1038,4.1044,4.1082,4.1014,4.1058,4.1086,4.1028,4.1084,4.1083,4.1092,4.1164,4.1195,4.1165,4.1314,4.1264,4.1273,4.1275,4.1313,4.1331,4.1347,4.114,4.1139,4.1138,0,0,4.1098,4.1105,4.1162,4.117,4.118,4.1167,4.1181,4.1182,4.1178,4.1236,4.1192,4.1224,4.1278,4.1285,4.1296,4.142,4.1384,4.143,4.1502,4.1543,4.1557,4.157,4.1611,4.1627,4.1439,4.1439,4.1439,0,4.1166,4.1223,4.1195,4.1241,4.1256,4.1206,4.1263,4.1272,4.129,4.1301,4.1268,4.1333,4.1336,4.1408,4.1438,4.1449,4.1462,4.1428,4.1558,4.157,4.1582,4.1621,4.1637,4.1444,4.1444,4.1443,4.1443,0,4.1304,4.1344,4.1389,4.1408,4.1429,4.148,4.1459,4.1482,4.146,4.145,4.1508,4.151,4.1535,4.1551,4.153,4.162,4.1601,4.1564,4.1504,4.1605,4.1641,4.1656,4.1452,4.145,4.1449,4.1447,0,0,4.1475,4.1478,4.1495,4.1502,4.151,4.154,4.1588,4.1614,4.1634,4.1649,4.1687,4.1734,4.1699,4.1711,4.169,4.1726,4.1821,4.1684,4.1684,4.1707,4.1917,4.1943,4.1961,4.1798,4.1801,4.1803,4.1915,0,4.1591,4.1674,4.165,4.1733,4.1768,4.1722,4.1764,4.1773,4.1765,4.1793,4.1784,4.1817,4.177,4.1777,4.1811,4.1802,4.1862,4.1794,4.1831,4.1833,4.1828,4.198,4.2007,4.2113,4.1929,4.1932,4.1933,0,4.1737,4.1758,4.1844,4.1845,4.1858,4.1897,4.1917,4.1946,4.1954,4.1946,4.196,4.1931,4.1977,4.192,4.1982,4.1936,4.195,4.1949,4.1952,4.1952,4.1887,4.1981,4.2146,4.2161,4.1956,4.1954,4.1952,0,4.1849,4.1899,4.1956,4.1964,4.1967,4.1995,4.1997,4.2002,4.2019,4.2037,4.2047,4.2071,4.2083,4.2102,4.208,4.204,4.2144,4.2085,4.2137,4.2137,4.2158,4.2157,4.2325,4.2173,4.2172,4.2172,4.2172,0,4.198,4.2034,4.2006,4.2041,4.21,4.2072,4.2131,4.2127,4.2133,4.2165,4.2127,4.2159,4.2129,4.2157,4.214,4.2193,4.2199,4.2193,4.2187,4.2194,4.2195,4.2201,4.2192,4.2176,4.2175,4.2175,4.2174,0,4.2114,4.2098,4.2157,4.2155,4.2155,4.2198,4.2196,4.2228,4.2218,4.2259,4.2267,4.2251,4.2283,4.2263,4.2295,4.2284,4.2351,4.2337,4.2348,4.2343,4.2395,4.2389,4.2571,4.2592,4.2429,4.2431,4.2432,0,4.2196,4.2237,4.2239,4.2258,4.2263,4.2295,4.2312,4.2286,4.2305,4.2317,4.2347,4.2375,4.2396,4.2448,4.2438,4.2462,4.2446,4.2508,4.2449,4.2455,4.2444,4.244,4.2443,4.2519,4.2521,4.2523,4.2524,0,4.2344,4.2334,4.236,4.2383,4.2404,4.2421,4.2434,4.2452,4.2426,4.2449,4.248,4.2497,4.2529,4.2557,4.2577,4.2578,4.2546,4.2543,4.2555,4.2562,4.2566,4.2561,4.2378,4.2538,4.2537,4.2536,4.2535,4.2534,4.2453,4.2486,4.2492,4.2521,4.2529,4.2542,4.2571,4.2565,4.2591,4.2615,4.2599,4.2636,4.2642,4.2666,4.2671,4.2699,4.2673,4.2692,4.2697,4.2701,4.2707,4.2564,4.2703,4.2702,4.2702,4.2701,4.2701,0,4.2596,4.2598,4.2625,4.2645,4.2668,4.2638,4.2651,4.2672,4.2705,4.2714,4.2735,4.2771,4.2797,4.2791,4.2814,4.2837,4.2823,4.2844,4.2841,4.2841,4.2729,4.2715,4.2855,4.2855,4.2855,4.2855,4.2855,4.2855,4.2673,4.2726,4.2717,4.2773,4.2774,4.281,4.282,4.2831,4.2838,4.288,4.2902,4.2897,4.2899,4.2923,4.2945,4.2942,4.2952,4.2977,4.2969,4.2864,4.2849,4.2834,4.282,4.298,4.2981,4.3078,4.3079,4.3079]}]]